Time,TemperatureF,DewpointF,PressureIn,WindDirection,WindDirectionDegrees,WindSpeedMPH,WindSpeedGustMPH,Humidity,HourlyPrecipIn,Conditions,Clouds,dailyrainin,SoftwareType,DateUTC
2013-03-08 00:02:00,32.7,29.8,30.06,NNW,337,0.0,0.0,89,-0.01,,,0.00,Weather View 32 v70,2013-03-08 08:02:00,
2013-03-08 00:07:00,32.5,29.6,30.06,NNW,337,0.0,0.0,89,-0.01,,,0.00,Weather View 32 v70,2013-03-08 08:07:00,
2013-03-08 00:12:00,32.2,29.3,30.06,NNW,337,0.0,0.0,89,-0.01,,,0.00,Weather View 32 v70,2013-03-08 08:12:00,
2013-03-08 00:17:00,32.2,29.3,30.06,NNW,337,0.0,0.0,89,-0.01,,,0.00,Weather View 32 v70,2013-03-08 08:17:00,
2013-03-08 00:22:00,32.4,29.8,30.06,NNW,337,0.0,0.0,90,-0.01,,,0.00,Weather View 32 v70,2013-03-08 08:22:00,
2013-03-08 00:27:00,32.4,29.8,30.06,NNW,337,0.0,0.0,90,-0.01,,,0.00,Weather View 32 v70,2013-03-08 08:27:00,
2013-03-08 00:32:00,32.4,29.8,30.06,NNW,337,0.0,0.0,90,-0.01,,,0.00,Weather View 32 v70,2013-03-08 08:32:00,
2013-03-08 00:37:00,32.4,29.8,30.06,NNW,337,0.0,0.0,90,-0.01,,,0.00,Weather View 32 v70,2013-03-08 08:37:00,
2013-03-08 00:42:00,32.4,29.8,30.06,NNW,337,0.0,0.0,90,-0.01,,,0.00,Weather View 32 v70,2013-03-08 08:42:00,
2013-03-08 00:47:00,32.2,29.6,30.06,NNW,337,0.0,0.0,90,-0.01,,,0.00,Weather View 32 v70,2013-03-08 08:47:00,
2013-03-08 00:52:00,32.1,29.5,30.06,NNW,337,0.0,0.0,90,-0.01,,,0.00,Weather View 32 v70,2013-03-08 08:52:00,
2013-03-08 00:57:00,32.2,29.6,30.06,NNW,337,0.0,0.0,90,-0.01,,,0.00,Weather View 32 v70,2013-03-08 08:57:00,
2013-03-08 01:02:00,32.5,29.9,30.06,NNW,337,0.0,0.0,90,0.00,,,0.00,Weather View 32 v70,2013-03-08 09:02:00,
2013-03-08 01:07:00,32.5,29.9,30.06,NNW,337,0.0,0.0,90,0.00,,,0.00,Weather View 32 v70,2013-03-08 09:07:00,
2013-03-08 01:12:00,32.4,29.8,30.06,NNW,337,0.0,0.0,90,0.00,,,0.00,Weather View 32 v70,2013-03-08 09:12:00,
2013-03-08 01:17:00,32.2,29.6,30.06,NNW,337,0.0,0.0,90,0.00,,,0.00,Weather View 32 v70,2013-03-08 09:17:00,
2013-03-08 01:22:00,32.2,29.6,30.06,NNW,337,0.0,0.0,90,0.00,,,0.00,Weather View 32 v70,2013-03-08 09:22:00,
2013-03-08 01:27:00,32.2,29.6,30.06,NNW,337,0.0,0.0,90,0.00,,,0.00,Weather View 32 v70,2013-03-08 09:27:00,
2013-03-08 01:32:00,31.9,29.3,30.07,NNW,337,0.0,0.0,90,0.00,,,0.00,Weather View 32 v70,2013-03-08 09:32:00,
2013-03-08 01:37:00,31.9,29.3,30.07,NNW,337,0.0,0.0,90,0.00,,,0.00,Weather View 32 v70,2013-03-08 09:37:00,
2013-03-08 01:42:00,31.9,29.3,30.07,NNW,337,0.0,0.0,90,0.00,,,0.00,Weather View 32 v70,2013-03-08 09:42:00,
2013-03-08 01:47:00,31.8,29.2,30.07,NNW,337,0.0,0.0,90,0.00,,,0.00,Weather View 32 v70,2013-03-08 09:47:00,
2013-03-08 01:52:00,31.8,29.2,30.07,NNW,337,0.0,0.0,90,0.00,,,0.00,Weather View 32 v70,2013-03-08 09:52:00,
2013-03-08 01:57:00,31.9,29.3,30.07,NNW,337,0.0,0.0,90,0.00,,,0.00,Weather View 32 v70,2013-03-08 09:57:00,
2013-03-08 02:02:00,31.9,29.3,30.07,NNW,337,0.0,0.0,90,0.00,,,0.00,Weather View 32 v70,2013-03-08 10:02:00,
2013-03-08 02:07:00,32.1,29.8,30.07,NNW,337,0.0,0.0,91,0.00,,,0.00,Weather View 32 v70,2013-03-08 10:07:00,
2013-03-08 02:12:00,32.1,29.5,30.07,NNW,337,0.0,0.0,90,0.00,,,0.00,Weather View 32 v70,2013-03-08 10:12:00,
2013-03-08 02:17:00,32.2,29.6,30.07,NNW,337,0.0,0.0,90,0.00,,,0.00,Weather View 32 v70,2013-03-08 10:17:00,
2013-03-08 02:22:00,32.2,29.6,30.06,NNW,337,0.0,0.0,90,0.00,,,0.00,Weather View 32 v70,2013-03-08 10:22:00,
2013-03-08 02:27:00,32.1,29.5,30.06,NNW,337,0.0,0.0,90,0.00,,,0.00,Weather View 32 v70,2013-03-08 10:27:00,
2013-03-08 02:35:00,31.6,29.0,30.06,NNW,337,0.0,0.0,90,0.00,,,0.00,Weather View 32 v70,2013-03-08 10:35:00,
2013-03-08 02:40:00,31.6,29.0,30.06,NNW,337,0.0,0.0,90,0.00,,,0.00,Weather View 32 v70,2013-03-08 10:40:00,
2013-03-08 02:45:00,31.5,28.9,30.07,NNW,337,0.0,0.0,90,0.00,,,0.00,Weather View 32 v70,2013-03-08 10:45:00,
2013-03-08 02:50:00,31.3,28.7,30.07,NNW,337,0.0,0.0,90,0.00,,,0.00,Weather View 32 v70,2013-03-08 10:50:00,
2013-03-08 02:54:00,31.2,28.6,30.07,NNW,337,0.0,0.0,90,0.00,,,0.00,Weather View 32 v70,2013-03-08 10:54:00,
2013-03-08 02:59:00,31.0,28.4,30.06,NNW,337,0.0,0.0,90,0.00,,,0.00,Weather View 32 v70,2013-03-08 10:59:00,
2013-03-08 03:04:00,31.0,28.4,30.07,NNW,337,0.0,0.0,90,0.00,,,0.00,Weather View 32 v70,2013-03-08 11:04:00,
2013-03-08 03:09:00,31.0,28.4,30.06,NNW,337,0.0,0.0,90,0.00,,,0.00,Weather View 32 v70,2013-03-08 11:09:00,
2013-03-08 03:14:00,30.9,28.3,30.06,NNW,337,0.0,0.0,90,0.00,,,0.00,Weather View 32 v70,2013-03-08 11:14:00,
2013-03-08 03:19:00,30.6,28.0,30.06,NNW,337,0.0,0.0,90,0.00,,,0.00,Weather View 32 v70,2013-03-08 11:19:00,
2013-03-08 03:24:00,30.7,28.1,30.07,NNW,337,0.0,0.0,90,0.00,,,0.00,Weather View 32 v70,2013-03-08 11:24:00,
2013-03-08 03:29:00,31.3,29.0,30.07,NNW,337,0.0,0.0,91,0.00,,,0.00,Weather View 32 v70,2013-03-08 11:29:00,
2013-03-08 03:34:00,31.5,28.9,30.07,NNW,337,0.0,0.0,90,0.00,,,0.00,Weather View 32 v70,2013-03-08 11:34:00,
2013-03-08 03:39:00,31.5,28.9,30.07,NNW,337,0.0,0.0,90,0.00,,,0.00,Weather View 32 v70,2013-03-08 11:39:00,
2013-03-08 03:44:00,31.3,28.7,30.07,NNW,337,0.0,0.0,90,0.00,,,0.00,Weather View 32 v70,2013-03-08 11:44:00,
2013-03-08 03:49:00,31.3,28.7,30.07,NNW,337,0.0,0.0,90,0.00,,,0.00,Weather View 32 v70,2013-03-08 11:49:00,
2013-03-08 03:54:00,31.5,28.9,30.07,NNW,337,0.0,0.0,90,0.00,,,0.00,Weather View 32 v70,2013-03-08 11:54:00,
2013-03-08 03:59:00,31.2,28.6,30.07,NNW,337,0.0,0.0,90,0.00,,,0.00,Weather View 32 v70,2013-03-08 11:59:00,
2013-03-08 04:04:00,31.0,28.4,30.07,NNW,337,0.0,0.0,90,0.00,,,0.00,Weather View 32 v70,2013-03-08 12:04:00,
2013-03-08 04:09:00,31.2,28.6,30.07,NNW,337,0.0,0.0,90,0.00,,,0.00,Weather View 32 v70,2013-03-08 12:09:00,
2013-03-08 04:14:00,31.3,28.7,30.07,NNW,337,0.0,0.0,90,0.00,,,0.00,Weather View 32 v70,2013-03-08 12:14:00,
2013-03-08 04:19:00,31.2,28.6,30.07,NNW,337,0.0,0.0,90,0.00,,,0.00,Weather View 32 v70,2013-03-08 12:19:00,
2013-03-08 04:24:00,31.5,28.9,30.07,NNW,337,0.0,0.0,90,0.00,,,0.00,Weather View 32 v70,2013-03-08 12:24:00,
2013-03-08 04:29:00,31.6,29.0,30.08,NNW,337,0.0,0.0,90,0.00,,,0.00,Weather View 32 v70,2013-03-08 12:29:00,
2013-03-08 04:34:00,31.8,29.2,30.08,NNW,337,0.0,0.0,90,0.00,,,0.00,Weather View 32 v70,2013-03-08 12:34:00,
2013-03-08 04:39:00,31.6,29.0,30.08,NNW,337,0.0,0.0,90,0.00,,,0.00,Weather View 32 v70,2013-03-08 12:39:00,
2013-03-08 04:44:00,31.5,28.9,30.08,NNW,337,0.0,0.0,90,0.00,,,0.00,Weather View 32 v70,2013-03-08 12:44:00,
2013-03-08 04:49:00,31.3,28.4,30.08,NNW,337,0.0,0.0,89,0.00,,,0.00,Weather View 32 v70,2013-03-08 12:49:00,
2013-03-08 04:54:00,31.2,28.6,30.08,NNW,337,0.0,0.0,90,0.00,,,0.00,Weather View 32 v70,2013-03-08 12:54:00,
2013-03-08 04:59:00,31.0,28.4,30.08,NNW,337,0.0,0.0,90,0.00,,,0.00,Weather View 32 v70,2013-03-08 12:59:00,
2013-03-08 05:04:00,30.9,28.3,30.08,NNW,337,0.0,0.0,90,0.00,,,0.00,Weather View 32 v70,2013-03-08 13:04:00,
2013-03-08 05:09:00,30.7,28.1,30.08,NNW,337,0.0,0.0,90,0.00,,,0.00,Weather View 32 v70,2013-03-08 13:09:00,
2013-03-08 05:14:00,30.6,28.0,30.08,NNW,337,0.0,0.0,90,0.00,,,0.00,Weather View 32 v70,2013-03-08 13:14:00,
2013-03-08 05:19:00,30.1,27.2,30.08,NNW,337,0.0,0.0,89,0.00,,,0.00,Weather View 32 v70,2013-03-08 13:19:00,
2013-03-08 05:24:00,29.8,27.0,30.08,NNW,337,0.0,0.0,89,0.00,,,0.00,Weather View 32 v70,2013-03-08 13:24:00,
2013-03-08 05:29:00,29.5,26.7,30.08,NNW,337,0.0,0.0,89,0.00,,,0.00,Weather View 32 v70,2013-03-08 13:29:00,
2013-03-08 05:34:00,29.5,26.9,30.08,NNW,337,0.0,0.0,90,0.00,,,0.00,Weather View 32 v70,2013-03-08 13:34:00,
2013-03-08 05:39:00,29.7,27.1,30.08,NNW,337,0.0,0.0,90,0.00,,,0.00,Weather View 32 v70,2013-03-08 13:39:00,
2013-03-08 05:44:00,29.7,27.1,30.08,NNW,337,0.0,0.0,90,0.00,,,0.00,Weather View 32 v70,2013-03-08 13:44:00,
2013-03-08 05:49:00,29.7,27.1,30.08,NNW,337,0.0,0.0,90,0.00,,,0.00,Weather View 32 v70,2013-03-08 13:49:00,
2013-03-08 05:54:00,29.7,27.1,30.08,NNW,337,0.0,0.0,90,0.00,,,0.00,Weather View 32 v70,2013-03-08 13:54:00,
2013-03-08 05:59:00,29.7,27.1,30.08,NNW,337,0.0,0.0,90,0.00,,,0.00,Weather View 32 v70,2013-03-08 13:59:00,
2013-03-08 06:04:00,29.5,26.9,30.08,NNW,337,0.0,0.0,90,0.00,,,0.00,Weather View 32 v70,2013-03-08 14:04:00,
2013-03-08 06:09:00,29.5,26.9,30.08,NNW,337,0.0,0.0,90,0.00,,,0.00,Weather View 32 v70,2013-03-08 14:09:00,
2013-03-08 06:14:00,29.4,26.8,30.08,NNW,337,0.0,0.0,90,0.00,,,0.00,Weather View 32 v70,2013-03-08 14:14:00,
2013-03-08 06:19:00,29.4,26.8,30.08,NNW,337,0.0,0.0,90,0.00,,,0.00,Weather View 32 v70,2013-03-08 14:19:00,
2013-03-08 06:24:00,29.3,27.0,30.08,NNW,337,0.0,0.0,91,0.00,,,0.00,Weather View 32 v70,2013-03-08 14:24:00,
2013-03-08 06:29:00,29.3,27.0,30.08,NNW,337,0.0,0.0,91,0.00,,,0.00,Weather View 32 v70,2013-03-08 14:29:00,
2013-03-08 06:34:00,29.4,27.1,30.08,NNW,337,0.0,0.0,91,0.00,,,0.00,Weather View 32 v70,2013-03-08 14:34:00,
2013-03-08 06:39:00,29.7,27.4,30.08,NNW,337,0.0,1.0,91,0.00,,,0.00,Weather View 32 v70,2013-03-08 14:39:00,
2013-03-08 06:44:00,29.5,27.2,30.08,NNW,337,0.0,1.0,91,0.00,,,0.00,Weather View 32 v70,2013-03-08 14:44:00,
2013-03-08 06:49:00,29.5,27.2,30.08,NNW,337,0.0,1.0,91,0.00,,,0.00,Weather View 32 v70,2013-03-08 14:49:00,
2013-03-08 06:54:00,29.5,27.2,30.08,NNW,337,0.0,1.0,91,0.00,,,0.00,Weather View 32 v70,2013-03-08 14:54:00,
2013-03-08 06:59:00,29.5,27.2,30.08,NNW,337,0.0,1.0,91,0.00,,,0.00,Weather View 32 v70,2013-03-08 14:59:00,
2013-03-08 07:04:00,29.5,27.2,30.08,NNW,337,0.0,1.0,91,0.00,,,0.00,Weather View 32 v70,2013-03-08 15:04:00,
2013-03-08 07:09:00,29.5,27.2,30.08,NNW,337,0.0,1.0,91,0.00,,,0.00,Weather View 32 v70,2013-03-08 15:09:00,
2013-03-08 07:14:00,29.8,27.5,30.08,NNW,337,0.0,1.0,91,0.00,,,0.00,Weather View 32 v70,2013-03-08 15:14:00,
2013-03-08 07:19:00,30.1,27.8,30.08,NNW,337,0.0,1.0,91,0.00,,,0.00,Weather View 32 v70,2013-03-08 15:19:00,
2013-03-08 07:24:00,30.6,28.6,30.08,NNW,337,0.0,1.0,92,0.00,,,0.00,Weather View 32 v70,2013-03-08 15:24:00,
2013-03-08 07:29:00,30.7,28.4,30.09,NNW,337,0.0,1.0,91,0.00,,,0.00,Weather View 32 v70,2013-03-08 15:29:00,
2013-03-08 07:34:00,31.0,28.9,30.09,NNW,337,0.0,1.0,92,0.00,,,0.00,Weather View 32 v70,2013-03-08 15:34:00,
2013-03-08 07:39:00,31.5,29.4,30.09,NNW,337,0.0,0.0,92,0.00,,,0.00,Weather View 32 v70,2013-03-08 15:39:00,
2013-03-08 07:44:00,31.9,29.8,30.09,NNW,337,0.0,0.0,92,0.00,,,0.00,Weather View 32 v70,2013-03-08 15:44:00,
2013-03-08 07:49:00,32.5,30.4,30.09,NNW,337,0.0,0.0,92,0.00,,,0.00,Weather View 32 v70,2013-03-08 15:49:00,
2013-03-08 07:54:00,33.1,30.8,30.09,NNW,337,0.0,0.0,91,0.00,,,0.00,Weather View 32 v70,2013-03-08 15:54:00,
2013-03-08 07:59:00,33.7,31.4,30.09,NNW,337,0.0,0.0,91,0.00,,,0.00,Weather View 32 v70,2013-03-08 15:59:00,
2013-03-08 08:04:00,34.4,31.8,30.09,NNW,337,0.0,0.0,90,0.00,,,0.00,Weather View 32 v70,2013-03-08 16:04:00,
2013-03-08 08:09:00,35.3,32.7,30.09,NNW,337,0.0,0.0,90,0.00,,,0.00,Weather View 32 v70,2013-03-08 16:09:00,
2013-03-08 08:14:00,35.9,32.4,30.09,NNW,337,0.0,0.0,87,0.00,,,0.00,Weather View 32 v70,2013-03-08 16:14:00,
2013-03-08 08:19:00,36.2,31.8,30.09,NNW,337,0.0,0.0,84,0.00,,,0.00,Weather View 32 v70,2013-03-08 16:19:00,
2013-03-08 08:24:00,36.5,31.8,30.10,NNW,337,0.0,0.0,83,0.00,,,0.00,Weather View 32 v70,2013-03-08 16:24:00,
2013-03-08 08:29:00,36.9,31.9,30.10,NNW,337,0.0,0.0,82,0.00,,,0.00,Weather View 32 v70,2013-03-08 16:29:00,
2013-03-08 08:34:00,37.5,32.2,30.09,NNW,337,0.0,0.0,81,0.00,,,0.00,Weather View 32 v70,2013-03-08 16:34:00,
2013-03-08 08:39:00,37.9,31.6,30.09,NNW,337,0.0,0.0,78,0.00,,,0.00,Weather View 32 v70,2013-03-08 16:39:00,
2013-03-08 08:44:00,38.5,31.9,30.09,NNW,337,0.0,0.0,77,0.00,,,0.00,Weather View 32 v70,2013-03-08 16:44:00,
2013-03-08 08:49:00,38.9,31.6,30.09,NNW,337,0.0,0.0,75,0.00,,,0.00,Weather View 32 v70,2013-03-08 16:49:00,
2013-03-08 08:54:00,39.3,33.0,30.10,NNW,337,0.0,0.0,78,0.00,,,0.00,Weather View 32 v70,2013-03-08 16:54:00,
2013-03-08 08:59:00,39.6,32.0,30.09,NNW,337,0.0,0.0,74,0.00,,,0.00,Weather View 32 v70,2013-03-08 16:59:00,
2013-03-08 09:04:00,39.9,31.9,30.10,NNW,337,0.0,0.0,73,0.00,,,0.00,Weather View 32 v70,2013-03-08 17:04:00,
2013-03-08 09:09:00,40.3,32.3,30.10,NNW,337,0.0,0.0,73,0.00,,,0.00,Weather View 32 v70,2013-03-08 17:09:00,
2013-03-08 09:14:00,40.9,32.6,30.10,NNW,337,0.0,0.0,72,0.00,,,0.00,Weather View 32 v70,2013-03-08 17:14:00,
2013-03-08 09:19:00,41.3,32.9,30.10,NNW,337,0.0,0.0,72,0.00,,,0.00,Weather View 32 v70,2013-03-08 17:19:00,
2013-03-08 09:24:00,41.9,33.9,30.09,NNW,337,0.0,0.0,73,0.00,,,0.00,Weather View 32 v70,2013-03-08 17:24:00,
2013-03-08 09:29:00,42.1,33.7,30.09,NNW,337,1.0,3.0,72,0.00,,,0.00,Weather View 32 v70,2013-03-08 17:29:00,
2013-03-08 09:34:00,41.8,33.8,30.09,NNW,337,1.0,3.0,73,0.00,,,0.00,Weather View 32 v70,2013-03-08 17:34:00,
2013-03-08 09:39:00,41.9,33.5,30.09,NNW,337,2.0,3.0,72,0.00,,,0.00,Weather View 32 v70,2013-03-08 17:39:00,
2013-03-08 09:44:00,42.2,33.1,30.09,NNW,337,2.0,3.0,70,0.00,,,0.00,Weather View 32 v70,2013-03-08 17:44:00,
2013-03-08 09:49:00,42.3,33.6,30.09,NNW,338,0.0,3.0,71,0.00,,,0.00,Weather View 32 v70,2013-03-08 17:49:00,
2013-03-08 09:54:00,42.8,34.0,30.09,NNW,338,0.0,3.0,71,0.00,,,0.00,Weather View 32 v70,2013-03-08 17:54:00,
2013-03-08 09:59:00,42.9,33.8,30.09,NNW,338,0.0,3.0,70,0.00,,,0.00,Weather View 32 v70,2013-03-08 17:59:00,
2013-03-08 10:04:00,43.3,33.8,30.09,NNW,338,3.0,3.0,69,0.00,,,0.00,Weather View 32 v70,2013-03-08 18:04:00,
2013-03-08 10:09:00,43.5,33.6,30.09,NNW,338,0.0,3.0,68,0.00,,,0.00,Weather View 32 v70,2013-03-08 18:09:00,
2013-03-08 10:14:00,43.8,33.2,30.09,NNW,338,2.0,3.0,66,0.00,,,0.00,Weather View 32 v70,2013-03-08 18:14:00,
2013-03-08 10:19:00,44.3,34.4,30.09,NNW,338,2.0,3.0,68,0.00,,,0.00,Weather View 32 v70,2013-03-08 18:19:00,
2013-03-08 10:24:00,45.1,33.6,30.09,NNW,338,0.0,3.0,64,0.00,,,0.00,Weather View 32 v70,2013-03-08 18:24:00,
2013-03-08 10:29:00,45.8,33.1,30.09,NNW,338,0.0,3.0,61,0.00,,,0.00,Weather View 32 v70,2013-03-08 18:29:00,
2013-03-08 10:34:00,46.4,34.1,30.09,NNW,338,0.0,3.0,62,0.00,,,0.00,Weather View 32 v70,2013-03-08 18:34:00,
2013-03-08 10:39:00,46.7,33.1,30.09,NNW,339,0.0,3.0,59,0.00,,,0.00,Weather View 32 v70,2013-03-08 18:39:00,
2013-03-08 10:44:00,47.1,33.1,30.09,NNW,339,0.0,3.0,58,0.00,,,0.00,Weather View 32 v70,2013-03-08 18:44:00,
2013-03-08 10:49:00,47.3,33.2,30.09,NNW,339,0.0,3.0,58,0.00,,,0.00,Weather View 32 v70,2013-03-08 18:49:00,
2013-03-08 10:54:00,47.7,33.6,30.09,NNW,339,0.0,3.0,58,0.00,,,0.00,Weather View 32 v70,2013-03-08 18:54:00,
2013-03-08 10:59:00,48.0,33.0,30.09,NNW,340,0.0,4.0,56,0.00,,,0.00,Weather View 32 v70,2013-03-08 18:59:00,
2013-03-08 11:04:00,48.6,33.1,30.09,NNW,340,0.0,4.0,55,0.00,,,0.00,Weather View 32 v70,2013-03-08 19:04:00,
2013-03-08 11:09:00,48.9,33.9,30.09,NNW,340,0.0,4.0,56,0.00,,,0.00,Weather View 32 v70,2013-03-08 19:09:00,
2013-03-08 11:14:00,49.4,33.9,30.09,NNW,340,0.0,4.0,55,0.00,,,0.00,Weather View 32 v70,2013-03-08 19:14:00,
2013-03-08 11:19:00,49.9,33.9,30.08,North,350,1.0,4.0,54,0.00,,,0.00,Weather View 32 v70,2013-03-08 19:19:00,
2013-03-08 11:24:00,49.9,33.4,30.08,North,355,3.0,5.0,53,0.00,,,0.00,Weather View 32 v70,2013-03-08 19:24:00,
2013-03-08 11:29:00,49.8,33.3,30.08,NE,41,3.0,6.0,53,0.00,,,0.00,Weather View 32 v70,2013-03-08 19:29:00,
2013-03-08 11:34:00,49.6,33.6,30.08,NE,42,2.0,6.0,54,0.00,,,0.00,Weather View 32 v70,2013-03-08 19:34:00,
2013-03-08 11:39:00,49.9,33.9,30.08,NE,44,4.0,6.0,54,0.00,,,0.00,Weather View 32 v70,2013-03-08 19:39:00,
2013-03-08 11:44:00,50.2,34.2,30.08,NE,44,3.0,6.0,54,0.00,,,0.00,Weather View 32 v70,2013-03-08 19:44:00,
2013-03-08 11:49:00,50.8,33.3,30.08,NE,35,2.0,6.0,51,0.00,,,0.00,Weather View 32 v70,2013-03-08 19:49:00,
2013-03-08 11:54:00,51.1,32.6,30.08,NE,38,2.0,6.0,49,0.00,,,0.00,Weather View 32 v70,2013-03-08 19:54:00,
2013-03-08 11:59:00,51.1,32.6,30.08,NNE,24,3.0,6.0,49,0.00,,,0.00,Weather View 32 v70,2013-03-08 19:59:00,
2013-03-08 12:04:00,51.1,33.1,30.07,NNE,24,1.0,6.0,50,0.00,,,0.00,Weather View 32 v70,2013-03-08 20:04:00,
2013-03-08 12:09:00,51.3,32.8,30.07,NNE,24,2.0,6.0,49,0.00,,,0.00,Weather View 32 v70,2013-03-08 20:09:00,
2013-03-08 12:14:00,51.6,32.5,30.07,NNE,24,0.0,6.0,48,0.00,,,0.00,Weather View 32 v70,2013-03-08 20:14:00,
2013-03-08 12:19:00,52.0,33.4,30.07,NNE,25,0.0,6.0,49,0.00,,,0.00,Weather View 32 v70,2013-03-08 20:19:00,
2013-03-08 12:24:00,52.2,33.6,30.07,NNE,25,0.0,6.0,49,0.00,,,0.00,Weather View 32 v70,2013-03-08 20:24:00,
2013-03-08 12:29:00,53.1,32.8,30.06,NNE,25,1.0,5.0,46,0.00,,,0.00,Weather View 32 v70,2013-03-08 20:29:00,
2013-03-08 12:34:00,53.5,33.2,30.06,NNE,25,4.0,5.0,46,0.00,,,0.00,Weather View 32 v70,2013-03-08 20:34:00,
2013-03-08 12:39:00,53.3,33.5,30.06,North,5,4.0,5.0,47,0.00,,,0.00,Weather View 32 v70,2013-03-08 20:39:00,
2013-03-08 12:44:00,53.5,33.2,30.06,North,5,0.0,5.0,46,0.00,,,0.00,Weather View 32 v70,2013-03-08 20:44:00,
2013-03-08 12:49:00,53.9,34.1,30.06,North,5,0.0,5.0,47,0.00,,,0.00,Weather View 32 v70,2013-03-08 20:49:00,
2013-03-08 12:54:00,54.5,34.1,30.06,North,5,0.0,5.0,46,0.00,,,0.00,Weather View 32 v70,2013-03-08 20:54:00,
2013-03-08 12:59:00,54.8,33.3,30.05,North,5,0.0,5.0,44,0.00,,,0.00,Weather View 32 v70,2013-03-08 20:59:00,
2013-03-08 13:04:00,55.1,33.5,30.05,North,5,3.0,5.0,44,0.00,,,0.00,Weather View 32 v70,2013-03-08 21:04:00,
2013-03-08 13:09:00,55.4,33.8,30.05,NNE,19,1.0,5.0,44,0.00,,,0.00,Weather View 32 v70,2013-03-08 21:09:00,
2013-03-08 13:14:00,55.9,34.3,30.05,NNE,19,2.0,5.0,44,0.00,,,0.00,Weather View 32 v70,2013-03-08 21:14:00,
2013-03-08 13:19:00,55.9,33.1,30.05,NNE,22,2.0,6.0,42,0.00,,,0.00,Weather View 32 v70,2013-03-08 21:19:00,
2013-03-08 13:24:00,56.3,34.0,30.05,NNE,23,2.0,6.0,43,0.00,,,0.00,Weather View 32 v70,2013-03-08 21:24:00,
2013-03-08 13:29:00,56.6,34.3,30.04,NNE,19,4.0,6.0,43,0.00,,,0.00,Weather View 32 v70,2013-03-08 21:29:00,
2013-03-08 13:34:00,56.5,31.8,30.04,NNE,18,3.0,7.0,39,0.00,,,0.00,Weather View 32 v70,2013-03-08 21:34:00,
2013-03-08 13:39:00,56.6,33.1,30.04,North,355,4.0,7.0,41,0.00,,,0.00,Weather View 32 v70,2013-03-08 21:39:00,
2013-03-08 13:44:00,56.9,32.1,30.04,North,360,2.0,7.0,39,0.00,,,0.00,Weather View 32 v70,2013-03-08 21:44:00,
2013-03-08 13:49:00,57.0,28.9,30.04,NE,55,4.0,8.0,34,0.00,,,0.00,Weather View 32 v70,2013-03-08 21:49:00,
2013-03-08 13:54:00,57.0,29.6,30.04,NE,50,3.0,8.0,35,0.00,,,0.00,Weather View 32 v70,2013-03-08 21:54:00,
2013-03-08 13:59:00,57.0,30.3,30.04,NNE,29,4.0,8.0,36,0.00,,,0.00,Weather View 32 v70,2013-03-08 21:59:00,
2013-03-08 14:04:00,56.7,28.6,30.04,NE,52,0.0,8.0,34,0.00,,,0.00,Weather View 32 v70,2013-03-08 22:04:00,
2013-03-08 14:09:00,57.0,29.6,30.03,ENE,58,2.0,8.0,35,0.00,,,0.00,Weather View 32 v70,2013-03-08 22:09:00,
2013-03-08 14:14:00,57.3,29.8,30.04,NE,53,2.0,8.0,35,0.00,,,0.00,Weather View 32 v70,2013-03-08 22:14:00,
2013-03-08 14:19:00,57.3,29.1,30.03,NE,50,0.0,8.0,34,0.00,,,0.00,Weather View 32 v70,2013-03-08 22:19:00,
2013-03-08 14:24:00,57.0,28.9,30.03,ENE,63,4.0,8.0,34,0.00,,,0.00,Weather View 32 v70,2013-03-08 22:24:00,
2013-03-08 14:29:00,57.0,28.1,30.04,NE,54,3.0,8.0,33,0.00,,,0.00,Weather View 32 v70,2013-03-08 22:29:00,
2013-03-08 14:34:00,57.2,28.3,30.04,NE,53,0.0,8.0,33,0.00,,,0.00,Weather View 32 v70,2013-03-08 22:34:00,
2013-03-08 14:39:00,57.2,29.7,30.04,NE,45,2.0,8.0,35,0.00,,,0.00,Weather View 32 v70,2013-03-08 22:39:00,
2013-03-08 14:44:00,57.2,29.7,30.04,ENE,59,0.0,8.0,35,0.00,,,0.00,Weather View 32 v70,2013-03-08 22:44:00,
2013-03-08 14:49:00,57.3,27.6,30.04,NE,53,0.0,8.0,32,0.00,,,0.00,Weather View 32 v70,2013-03-08 22:49:00,
2013-03-08 14:54:00,57.6,29.4,30.04,NE,53,1.0,8.0,34,0.00,,,0.00,Weather View 32 v70,2013-03-08 22:54:00,
2013-03-08 14:59:00,58.0,27.5,30.04,NE,42,0.0,8.0,31,0.00,,,0.00,Weather View 32 v70,2013-03-08 22:59:00,
2013-03-08 15:04:00,57.6,28.6,30.04,NE,45,1.0,8.0,33,0.00,,,0.00,Weather View 32 v70,2013-03-08 23:04:00,
2013-03-08 15:09:00,57.6,27.9,30.04,NE,55,0.0,8.0,32,0.00,,,0.00,Weather View 32 v70,2013-03-08 23:09:00,
2013-03-08 15:14:00,57.6,26.3,30.04,ENE,57,0.0,8.0,30,0.00,,,0.00,Weather View 32 v70,2013-03-08 23:14:00,
2013-03-08 15:19:00,58.0,27.5,30.04,ENE,57,0.0,8.0,31,0.00,,,0.00,Weather View 32 v70,2013-03-08 23:19:00,
2013-03-08 15:24:00,57.8,26.5,30.04,ENE,66,0.0,8.0,30,0.00,,,0.00,Weather View 32 v70,2013-03-08 23:24:00,
2013-03-08 15:29:00,57.8,28.8,30.04,ENE,65,0.0,7.0,33,0.00,,,0.00,Weather View 32 v70,2013-03-08 23:29:00,
2013-03-08 15:34:00,58.3,30.0,30.04,NE,49,4.0,7.0,34,0.00,,,0.00,Weather View 32 v70,2013-03-08 23:34:00,
2013-03-08 15:39:00,58.4,29.3,30.04,NE,47,0.0,7.0,33,0.00,,,0.00,Weather View 32 v70,2013-03-08 23:39:00,
2013-03-08 15:43:00,58.3,28.5,30.04,NE,43,0.0,7.0,32,0.01,,,0.00,Weather View 32 v70,2013-03-08 23:43:00,
2013-03-08 15:48:00,58.0,29.7,30.04,NE,44,1.0,7.0,34,0.00,,,0.00,Weather View 32 v70,2013-03-08 23:48:00,
2013-03-08 15:53:00,57.8,29.6,30.04,East,80,0.0,7.0,34,0.00,,,0.00,Weather View 32 v70,2013-03-08 23:53:00,
2013-03-08 15:58:00,57.6,29.4,30.03,ENE,63,0.0,7.0,34,0.00,,,0.00,Weather View 32 v70,2013-03-08 23:58:00,
2013-03-08 16:03:00,57.6,28.6,30.04,ENE,61,0.0,7.0,33,0.00,,,0.00,Weather View 32 v70,2013-03-09 00:03:00,
2013-03-08 16:08:00,57.5,29.3,30.04,NE,53,0.0,7.0,34,0.00,,,0.00,Weather View 32 v70,2013-03-09 00:08:00,
2013-03-08 16:13:00,57.5,29.3,30.04,NE,37,2.0,7.0,34,0.00,,,0.00,Weather View 32 v70,2013-03-09 00:13:00,
2013-03-08 16:18:00,57.3,29.8,30.03,NE,45,2.0,7.0,35,0.00,,,0.00,Weather View 32 v70,2013-03-09 00:18:00,
2013-03-08 16:23:00,57.0,28.9,30.04,ENE,73,3.0,7.0,34,0.00,,,0.00,Weather View 32 v70,2013-03-09 00:23:00,
2013-03-08 16:28:00,57.0,29.6,30.04,ENE,77,4.0,7.0,35,0.00,,,0.00,Weather View 32 v70,2013-03-09 00:28:00,
2013-03-08 16:33:00,56.9,29.5,30.04,ENE,74,0.0,7.0,35,0.00,,,0.00,Weather View 32 v70,2013-03-09 00:33:00,
2013-03-08 16:38:00,56.9,28.8,30.04,ENE,74,0.0,7.0,34,0.00,,,0.00,Weather View 32 v70,2013-03-09 00:38:00,
2013-03-08 16:43:00,57.3,30.5,30.04,ENE,74,0.0,7.0,36,0.00,,,0.00,Weather View 32 v70,2013-03-09 00:43:00,
2013-03-08 16:48:00,58.1,30.5,30.04,ENE,74,0.0,7.0,35,0.00,,,0.00,Weather View 32 v70,2013-03-09 00:48:00,
2013-03-08 16:53:00,58.3,30.7,30.04,ENE,63,4.0,7.0,35,0.00,,,0.00,Weather View 32 v70,2013-03-09 00:53:00,
2013-03-08 16:58:00,57.8,30.3,30.04,NE,53,0.0,7.0,35,0.00,,,0.00,Weather View 32 v70,2013-03-09 00:58:00,
2013-03-08 17:03:00,57.5,30.7,30.04,NE,53,0.0,7.0,36,0.00,,,0.00,Weather View 32 v70,2013-03-09 01:03:00,
2013-03-08 17:08:00,57.5,30.7,30.04,NE,53,0.0,7.0,36,0.00,,,0.00,Weather View 32 v70,2013-03-09 01:08:00,
2013-03-08 17:13:00,57.6,32.1,30.04,NE,53,0.0,7.0,38,0.00,,,0.00,Weather View 32 v70,2013-03-09 01:13:00,
2013-03-08 17:18:00,57.3,31.2,30.05,NE,53,0.0,7.0,37,0.00,,,0.00,Weather View 32 v70,2013-03-09 01:18:00,
2013-03-08 17:23:00,56.6,31.9,30.05,NE,53,0.0,7.0,39,0.00,,,0.00,Weather View 32 v70,2013-03-09 01:23:00,
2013-03-08 17:28:00,56.0,32.0,30.05,NE,53,0.0,7.0,40,0.00,,,0.00,Weather View 32 v70,2013-03-09 01:28:00,
2013-03-08 17:33:00,55.4,32.0,30.05,NE,53,0.0,4.0,41,0.00,,,0.00,Weather View 32 v70,2013-03-09 01:33:00,
2013-03-08 17:38:00,54.4,31.7,30.05,NE,53,0.0,4.0,42,0.00,,,0.00,Weather View 32 v70,2013-03-09 01:38:00,
2013-03-08 17:43:00,53.6,32.2,30.05,NE,53,0.0,4.0,44,0.00,,,0.00,Weather View 32 v70,2013-03-09 01:43:00,
2013-03-08 17:48:00,52.8,32.6,30.06,NE,53,0.0,4.0,46,0.00,,,0.00,Weather View 32 v70,2013-03-09 01:48:00,
2013-03-08 17:53:00,52.2,32.5,30.06,NE,53,0.0,4.0,47,0.00,,,0.00,Weather View 32 v70,2013-03-09 01:53:00,
2013-03-08 17:58:00,51.9,33.3,30.06,NE,53,0.0,2.0,49,0.00,,,0.00,Weather View 32 v70,2013-03-09 01:58:00,
2013-03-08 18:03:00,51.4,32.3,30.06,NE,53,0.0,1.0,48,0.00,,,0.00,Weather View 32 v70,2013-03-09 02:03:00,
2013-03-08 18:08:00,51.0,32.5,30.07,NE,53,0.0,1.0,49,0.00,,,0.00,Weather View 32 v70,2013-03-09 02:08:00,
2013-03-08 18:13:00,50.7,32.7,30.07,NE,53,0.0,1.0,50,0.00,,,0.00,Weather View 32 v70,2013-03-09 02:13:00,
2013-03-08 18:18:00,50.1,32.6,30.07,NE,53,0.0,1.0,51,0.00,,,0.00,Weather View 32 v70,2013-03-09 02:18:00,
2013-03-08 18:23:00,49.8,32.4,30.08,NE,34,2.0,5.0,51,0.00,,,0.00,Weather View 32 v70,2013-03-09 02:23:00,
2013-03-08 18:28:00,49.4,32.5,30.08,NNW,340,0.0,5.0,52,0.00,,,0.00,Weather View 32 v70,2013-03-09 02:28:00,
2013-03-08 18:33:00,49.1,32.7,30.08,NNW,340,3.0,5.0,53,0.00,,,0.00,Weather View 32 v70,2013-03-09 02:33:00,
2013-03-08 18:38:00,48.8,32.4,30.08,WNW,294,3.0,5.0,53,0.00,,,0.00,Weather View 32 v70,2013-03-09 02:38:00,
2013-03-08 18:43:00,48.8,32.4,30.09,WNW,292,5.0,6.0,53,0.00,,,0.00,Weather View 32 v70,2013-03-09 02:43:00,
2013-03-08 18:48:00,48.9,32.5,30.09,West,276,0.0,7.0,53,0.00,,,0.00,Weather View 32 v70,2013-03-09 02:48:00,
2013-03-08 18:53:00,48.2,32.8,30.09,West,276,0.0,7.0,55,0.00,,,0.00,Weather View 32 v70,2013-03-09 02:53:00,
2013-03-08 18:58:00,47.0,33.0,30.10,West,276,0.0,7.0,58,0.00,,,0.00,Weather View 32 v70,2013-03-09 02:58:00,
2013-03-08 19:03:00,46.2,33.5,30.10,West,276,0.0,7.0,61,0.00,,,0.00,Weather View 32 v70,2013-03-09 03:03:00,
2013-03-08 19:08:00,45.7,33.4,30.10,West,276,0.0,7.0,62,0.00,,,0.00,Weather View 32 v70,2013-03-09 03:08:00,
2013-03-08 19:13:00,45.2,32.9,30.11,West,276,0.0,7.0,62,0.00,,,0.00,Weather View 32 v70,2013-03-09 03:13:00,
2013-03-08 19:18:00,44.6,32.8,30.11,West,276,0.0,7.0,63,0.00,,,0.00,Weather View 32 v70,2013-03-09 03:18:00,
2013-03-08 19:23:00,44.1,32.7,30.11,West,276,0.0,7.0,64,0.00,,,0.00,Weather View 32 v70,2013-03-09 03:23:00,
2013-03-08 19:28:00,43.8,32.8,30.11,West,276,0.0,7.0,65,0.00,,,0.00,Weather View 32 v70,2013-03-09 03:28:00,
2013-03-08 19:33:00,43.5,32.9,30.11,West,276,0.0,7.0,66,0.00,,,0.00,Weather View 32 v70,2013-03-09 03:33:00,
2013-03-08 19:38:00,43.1,32.5,30.11,West,276,0.0,7.0,66,0.00,,,0.00,Weather View 32 v70,2013-03-09 03:38:00,
2013-03-08 19:43:00,42.6,32.4,30.12,West,276,0.0,7.0,67,0.00,,,0.00,Weather View 32 v70,2013-03-09 03:43:00,
2013-03-08 19:48:00,42.3,32.1,30.12,West,276,0.0,2.0,67,0.00,,,0.00,Weather View 32 v70,2013-03-09 03:48:00,
2013-03-08 19:53:00,42.2,32.4,30.12,West,276,0.0,0.0,68,0.00,,,0.00,Weather View 32 v70,2013-03-09 03:53:00,
2013-03-08 19:58:00,41.8,32.0,30.12,West,276,0.0,0.0,68,0.00,,,0.00,Weather View 32 v70,2013-03-09 03:58:00,
2013-03-08 20:03:00,41.6,32.2,30.12,West,276,0.0,0.0,69,0.00,,,0.00,Weather View 32 v70,2013-03-09 04:03:00,
2013-03-08 20:08:00,41.3,31.9,30.13,West,276,0.0,0.0,69,0.00,,,0.00,Weather View 32 v70,2013-03-09 04:08:00,
2013-03-08 20:13:00,41.1,32.1,30.13,West,276,0.0,0.0,70,0.00,,,0.00,Weather View 32 v70,2013-03-09 04:13:00,
2013-03-08 20:18:00,40.8,31.8,30.13,West,276,0.0,0.0,70,0.00,,,0.00,Weather View 32 v70,2013-03-09 04:18:00,
2013-03-08 20:23:00,40.8,31.8,30.13,West,276,0.0,0.0,70,0.00,,,0.00,Weather View 32 v70,2013-03-09 04:23:00,
2013-03-08 20:28:00,40.8,31.8,30.13,West,276,0.0,0.0,70,0.00,,,0.00,Weather View 32 v70,2013-03-09 04:28:00,
2013-03-08 20:33:00,40.8,31.8,30.14,West,276,0.0,0.0,70,0.00,,,0.00,Weather View 32 v70,2013-03-09 04:33:00,
2013-03-08 20:38:00,40.3,31.3,30.14,West,276,0.0,0.0,70,0.00,,,0.00,Weather View 32 v70,2013-03-09 04:38:00,
2013-03-08 20:43:00,40.1,31.4,30.14,West,276,0.0,0.0,71,0.00,,,0.00,Weather View 32 v70,2013-03-09 04:43:00,
2013-03-08 20:48:00,39.8,31.5,30.14,West,276,0.0,0.0,72,0.00,,,0.00,Weather View 32 v70,2013-03-09 04:48:00,
2013-03-08 20:53:00,39.6,31.3,30.15,West,276,0.0,0.0,72,0.00,,,0.00,Weather View 32 v70,2013-03-09 04:53:00,
2013-03-08 20:58:00,39.5,31.6,30.15,West,276,0.0,0.0,73,0.00,,,0.00,Weather View 32 v70,2013-03-09 04:58:00,
2013-03-08 21:00:00,39.5,31.6,30.15,West,276,0.0,0.0,73,0.00,,,0.00,Weather View 32 v70,2013-03-09 05:00:00,
2013-03-08 21:01:00,39.5,31.6,30.15,West,276,0.0,0.0,73,0.00,,,0.00,Weather View 32 v70,2013-03-09 05:01:00,
2013-03-08 21:05:00,39.5,31.9,30.15,West,276,0.0,0.0,74,0.00,,,0.00,Weather View 32 v70,2013-03-09 05:05:00,
2013-03-08 21:10:00,39.5,31.9,30.15,West,276,0.0,0.0,74,0.00,,,0.00,Weather View 32 v70,2013-03-09 05:10:00,
2013-03-08 21:15:00,39.5,32.2,30.15,West,276,0.0,0.0,75,0.00,,,0.00,Weather View 32 v70,2013-03-09 05:15:00,
2013-03-08 21:20:00,39.5,32.2,30.16,West,276,0.0,0.0,75,0.00,,,0.00,Weather View 32 v70,2013-03-09 05:20:00,
2013-03-08 21:25:00,39.2,31.9,30.16,West,276,0.0,0.0,75,0.00,,,0.00,Weather View 32 v70,2013-03-09 05:25:00,
2013-03-08 21:30:00,39.1,32.5,30.16,West,276,0.0,0.0,77,0.00,,,0.00,Weather View 32 v70,2013-03-09 05:30:00,
2013-03-08 21:35:00,38.9,32.3,30.16,West,276,0.0,0.0,77,0.00,,,0.00,Weather View 32 v70,2013-03-09 05:35:00,
2013-03-08 21:40:00,38.8,31.9,30.16,West,276,0.0,0.0,76,0.00,,,0.00,Weather View 32 v70,2013-03-09 05:40:00,
2013-03-08 21:45:00,38.5,31.6,30.17,West,276,0.0,0.0,76,0.00,,,0.00,Weather View 32 v70,2013-03-09 05:45:00,
2013-03-08 21:50:00,38.2,31.6,30.17,West,276,0.0,0.0,77,0.00,,,0.00,Weather View 32 v70,2013-03-09 05:50:00,
2013-03-08 21:55:00,37.6,31.0,30.17,West,276,0.0,0.0,77,0.00,,,0.00,Weather View 32 v70,2013-03-09 05:55:00,
2013-03-08 22:00:00,37.3,30.7,30.17,West,276,0.0,0.0,77,0.00,,,0.00,Weather View 32 v70,2013-03-09 06:00:00,
2013-03-08 22:05:00,36.8,30.6,30.17,West,276,0.0,0.0,78,0.00,,,0.00,Weather View 32 v70,2013-03-09 06:05:00,
2013-03-08 22:10:00,36.5,30.6,30.18,West,276,0.0,0.0,79,0.00,,,0.00,Weather View 32 v70,2013-03-09 06:10:00,
2013-03-08 22:15:00,36.3,30.4,30.18,West,276,0.0,0.0,79,0.00,,,0.00,Weather View 32 v70,2013-03-09 06:15:00,
2013-03-08 22:20:00,36.5,30.9,30.18,West,276,0.0,0.0,80,0.00,,,0.00,Weather View 32 v70,2013-03-09 06:20:00,
2013-03-08 22:25:00,36.0,30.1,30.18,West,276,0.0,0.0,79,0.00,,,0.00,Weather View 32 v70,2013-03-09 06:25:00,
2013-03-08 22:30:00,35.9,30.3,30.18,West,276,0.0,0.0,80,0.00,,,0.00,Weather View 32 v70,2013-03-09 06:30:00,
2013-03-08 22:35:00,35.9,30.6,30.18,West,276,0.0,0.0,81,0.00,,,0.00,Weather View 32 v70,2013-03-09 06:35:00,
2013-03-08 22:40:00,35.6,30.3,30.19,West,276,0.0,0.0,81,0.00,,,0.00,Weather View 32 v70,2013-03-09 06:40:00,
2013-03-08 22:45:00,35.3,30.0,30.19,West,276,0.0,0.0,81,0.00,,,0.00,Weather View 32 v70,2013-03-09 06:45:00,
2013-03-08 22:50:00,35.0,29.8,30.19,West,276,0.0,0.0,81,0.00,,,0.00,Weather View 32 v70,2013-03-09 06:50:00,
2013-03-08 22:55:00,34.9,29.7,30.19,West,276,0.0,0.0,81,0.00,,,0.00,Weather View 32 v70,2013-03-09 06:55:00,
2013-03-08 23:00:00,34.7,29.8,30.19,West,276,0.0,0.0,82,0.00,,,0.00,Weather View 32 v70,2013-03-09 07:00:00,
2013-03-08 23:05:00,34.6,29.7,30.19,West,276,0.0,0.0,82,0.00,,,0.00,Weather View 32 v70,2013-03-09 07:05:00,
2013-03-08 23:10:00,34.4,29.5,30.20,West,276,0.0,0.0,82,0.00,,,0.00,Weather View 32 v70,2013-03-09 07:10:00,
2013-03-08 23:15:00,34.3,29.7,30.20,West,276,0.0,0.0,83,0.00,,,0.00,Weather View 32 v70,2013-03-09 07:15:00,
2013-03-08 23:20:00,34.1,29.5,30.20,West,276,0.0,0.0,83,0.00,,,0.00,Weather View 32 v70,2013-03-09 07:20:00,
2013-03-08 23:25:00,34.1,29.8,30.20,West,276,0.0,0.0,84,0.00,,,0.00,Weather View 32 v70,2013-03-09 07:25:00,
2013-03-08 23:30:00,34.1,29.8,30.20,West,276,0.0,0.0,84,0.00,,,0.00,Weather View 32 v70,2013-03-09 07:30:00,
2013-03-08 23:35:00,34.1,29.8,30.20,West,276,0.0,0.0,84,0.00,,,0.00,Weather View 32 v70,2013-03-09 07:35:00,
2013-03-08 23:40:00,34.1,29.8,30.20,West,276,0.0,0.0,84,0.00,,,0.00,Weather View 32 v70,2013-03-09 07:40:00,
2013-03-08 23:45:00,34.0,29.7,30.20,West,276,0.0,0.0,84,0.00,,,0.00,Weather View 32 v70,2013-03-09 07:45:00,
2013-03-08 23:50:00,33.8,29.5,30.21,West,276,0.0,0.0,84,0.00,,,0.00,Weather View 32 v70,2013-03-09 07:50:00,
2013-03-08 23:55:00,33.8,29.5,30.21,West,276,0.0,0.0,84,0.00,,,0.00,Weather View 32 v70,2013-03-09 07:55:00,